Hourly Data Report for August 14, 2022

TRENTON A
ONTARIO
Current Station Operator: DND

44°07'08.000" N
77°31'41.000" W
86.30 m
6158875
71621
YTR

Download Data

Hourly Data (August 2022)
Hourly Data Report for August 14, 2022
TIME
LST
Temp Definition
°C
Dew Point Definition
°C
Rel Hum Definition
%
Precip. Amount Definition
mm

Wind Dir Definition
10's deg

Wind Spd Definition
km/h
Visibility Definition
km
Stn Press Definition
kPa
Hmdx Definition


Wind Chill Definition


Weather Definition


00:00 12.8 10.6 86     0 24.1 100.85     LegendNANA
01:00 12.8 10.3 85   2 4 24.1 100.83     LegendNANA
02:00 12.3 10.0 86   30 4 24.1 100.80     LegendNANA
03:00 11.4 9.7 89   5 4 24.1 100.79     LegendNANA
04:00 10.7 9.6 93   4 5 24.1 100.78     LegendNANA
05:00 10.3 9.3 94   3 5 24.1 100.76     LegendNANA
06:00 11.7 10.5 92   3 5 24.1 100.79     LegendNANA
07:00 14.6 11.8 83   4 5 24.1 100.80     LegendNANA
08:00 18.6 11.8 65   4 5 24.1 100.80     LegendNANA
09:00 22.6 12.8 54   9 4 24.1 100.79 25   LegendNANA
10:00 24.2 12.6 48   24 9 24.1 100.77 27   LegendNANA
11:00 25.6 13.7 48   22 15 24.1 100.73 29   LegendNANA
12:00 25.6 13.3 47   18 13 24.1 100.70 29   LegendNANA
13:00 26.0 13.1 45   24 18 24.1 100.66 29   LegendNANA
14:00 26.8 10.6 36   20 15 24.1 100.63 28   LegendNANA
15:00 26.2 10.8 38   23 15 24.1 100.62 28   LegendNANA
16:00 26.3 9.2 34   22 18 24.1 100.61 27   LegendNANA
17:00 25.9 8.4 33   23 9 24.1 100.61 26   LegendNANA
18:00 25.2 8.1 34   16 8 24.1 100.58 26   LegendNANA
19:00 22.6 10.6 47   6 4 24.1 100.58     LegendNANA
20:00 18.7 11.1 61   2 4 24.1 100.59     LegendNANA
21:00 16.5 10.5 68   4 5 24.1 100.61     LegendNANA
22:00 15.0 11.2 78   1 4 24.1 100.62     LegendNANA
23:00 14.4 10.9 80   34 4 24.1 100.64     LegendNANA

Notes on Data Quality.

Legend

  • E = Estimated
  • M = Missing
  • NA = Not Available*
  • [empty] = Indicates an unobserved value
Date modified: